Find Starlink 4080

NORAD ID: 52835 Int'l Des: 2022-062 Owner: SPXS Country: US Constellation: starlink operational
LEOCIRCULAR

リアルタイム位置

3D地球を読み込み中...

Starlink 4080について

説明を読み込み中...

次回通過

Passes for default location (London). Set your location on the main map for personalized predictions.

高度履歴

Loading altitude history...

軌道要素

1 52835U 22062F 26124.46536317 .00000656 00000-0 59319-4 0 9993
2 52835 53.2165 143.7356 0001264 84.9361 275.1775 15.08841532214200
Epoch: May 4, 2026 • Age: 9 hours

現在のステータス

高度 551.2 km
速度 7.59 km/s
衛星直下点 -34.16°S, 171.96°W
打ち上げ日 Jun 17, 2022
運用期間 3.8 years
タイプ internet

技術仕様

分類 Payload
質量 297.00 kg
乾燥質量 275.00 kg
総質量 297.00 kg
長さ 0.20 m
直径 2.80 m
スパン 9.00 m
形状 Box + pan
製造者 SPXS
バスタイプ Starlink
フェーズステータス In Orbit
所有者/国 SPXS/US

Most Searched